Location: Dal�� Lhota
(48.7500°N, 14.0167°E)
Time: 02:38:29
(UTC+00:00)

Cosmos 2278 Rocket - Pass Details

Date: 24 September 2020
Orbit: 841 x 845 km, 71.0° (Epoch: 29 October)

Event Time Altitude Azimuth Distance (km) Brightness Sun altitude
Rises 19:43:18 0° 207° (SSW) 3,384 5.3 -26.9°
Reaches altitude 10° 19:45:44 10° 207° (SSW) 2,453 4.5 -27.2°
Enters shadow 19:45:57 11° 207° (SSW) 2,369 4.4 -27.2°
Exits shadow 19:51:10 83° 227° (SW) 854 2.1 -27.9°
Maximum altitude 19:51:23 88° 299° (WNW) 849 2.1 -28.0°
Drops below altitude 10° 19:57:04 10° 28° (NNE) 2,470 4.7 -28.7°
Sets 19:59:31 0° 29° (NNE) 3,409 5.5 -29.1°
